Time,TemperatureF,DewpointF,PressureIn,WindDirection,WindDirectionDegrees,WindSpeedMPH,WindSpeedGustMPH,Humidity,HourlyPrecipIn,Conditions,Clouds,dailyrainin,SolarRadiationWatts/m^2,SoftwareType,DateUTC
2013-02-01 00:00:00,6.0,1.0,-100.00,WNW,292,8.0,-999.0,78,-99.99,,,-99.99,0.000000,,2013-02-01 06:00:00,
2013-02-01 00:42:00,6.0,1.0,-100.00,WNW,292,8.0,-999.0,78,-99.99,,,-99.99,0.000000,,2013-02-01 06:42:00,
2013-02-01 00:52:00,6.0,1.0,-100.00,WNW,292,8.0,-999.0,78,-99.99,,,-99.99,0.000000,,2013-02-01 06:52:00,
2013-02-01 03:00:00,4.0,-2.0,-100.00,West,270,7.0,-999.0,77,-99.99,,,-99.99,0.000000,,2013-02-01 09:00:00,
2013-02-01 03:42:00,4.0,-2.0,-100.00,West,270,7.0,-999.0,77,-99.99,,,-99.99,0.000000,,2013-02-01 09:42:00,
2013-02-01 03:52:00,4.0,-2.0,-100.00,West,270,7.0,-999.0,77,-99.99,,,-99.99,0.000000,,2013-02-01 09:52:00,
2013-02-01 06:00:00,3.0,-2.0,-100.00,West,270,8.0,-999.0,77,-99.99,,,-99.99,0.000000,,2013-02-01 12:00:00,
2013-02-01 06:32:00,3.0,-2.0,-100.00,West,270,8.0,-999.0,77,-99.99,,,-99.99,0.000000,,2013-02-01 12:32:00,
2013-02-01 06:42:00,3.0,-2.0,-100.00,West,270,8.0,-999.0,77,-99.99,,,-99.99,0.000000,,2013-02-01 12:42:00,
2013-02-01 06:52:00,3.0,-2.0,-100.00,West,270,8.0,-999.0,77,-99.99,,,-99.99,0.000000,,2013-02-01 12:52:00,
2013-02-01 09:00:00,0.0,-7.0,-100.00,WNW,292,7.0,-999.0,72,-99.99,,,-99.99,147.320007,,2013-02-01 15:00:00,
2013-02-01 09:42:00,0.0,-7.0,-100.00,WNW,292,7.0,-999.0,72,-99.99,,,-99.99,147.320007,,2013-02-01 15:42:00,
2013-02-01 09:52:00,0.0,-7.0,-100.00,WNW,292,7.0,-999.0,72,-99.99,,,-99.99,147.320007,,2013-02-01 15:52:00,
2013-02-01 12:00:00,5.0,-5.0,-100.00,WSW,247,7.0,-999.0,63,-99.99,,,-99.99,464.000000,,2013-02-01 18:00:00,
2013-02-01 12:32:00,5.0,-5.0,-100.00,WSW,247,7.0,-999.0,63,-99.99,,,-99.99,464.000000,,2013-02-01 18:32:00,
2013-02-01 12:42:00,5.0,-5.0,-100.00,WSW,247,7.0,-999.0,63,-99.99,,,-99.99,464.000000,,2013-02-01 18:42:00,
2013-02-01 12:53:00,5.0,-5.0,-100.00,WSW,247,7.0,-999.0,63,-99.99,,,-99.99,464.000000,,2013-02-01 18:53:00,
2013-02-01 15:00:00,4.0,-6.0,-100.00,SW,225,7.0,-999.0,61,-99.99,,,-99.99,324.799988,,2013-02-01 21:00:00,
2013-02-01 15:32:00,4.0,-6.0,-100.00,SW,225,7.0,-999.0,61,-99.99,,,-99.99,324.799988,,2013-02-01 21:32:00,
2013-02-01 15:42:00,4.0,-6.0,-100.00,SW,225,7.0,-999.0,61,-99.99,,,-99.99,324.799988,,2013-02-01 21:42:00,
2013-02-01 15:52:00,4.0,-6.0,-100.00,SW,225,7.0,-999.0,61,-99.99,,,-99.99,324.799988,,2013-02-01 21:52:00,
2013-02-01 18:00:00,0.0,-9.0,-100.00,SW,225,8.0,-999.0,67,-99.99,,,-99.99,0.000000,,2013-02-02 00:00:00,
2013-02-01 18:42:00,0.0,-9.0,-100.00,SW,225,8.0,-999.0,67,-99.99,,,-99.99,0.000000,,2013-02-02 00:42:00,
2013-02-01 18:52:00,0.0,-9.0,-100.00,SW,225,8.0,-999.0,67,-99.99,,,-99.99,0.000000,,2013-02-02 00:52:00,
2013-02-01 21:00:00,1.0,-10.0,-100.00,West,270,6.0,-999.0,60,-99.99,,,-99.99,0.000000,,2013-02-02 03:00:00,
2013-02-01 21:42:00,1.0,-10.0,-100.00,West,270,6.0,-999.0,60,-99.99,,,-99.99,0.000000,,2013-02-02 03:42:00,
2013-02-01 21:52:00,1.0,-10.0,-100.00,West,270,6.0,-999.0,60,-99.99,,,-99.99,0.000000,,2013-02-02 03:52:00,